Location: Unspecified
(0.0000°N, 0.0000°E)
Time: 06:41:48
(UTC+00:00)

SRMSAT - Pass Details

Date: 13 December 2017
Orbit: 848 x 866 km, 20.0° (Epoch: 21 June)

Event Time Altitude Azimuth Distance (km) Brightness Sun altitude
Exits shadow 04:02:30 56° 347° (NNW) 1,007 ? -25.5°
Drops below altitude 10° 04:08:11 10° 57° (ENE) 2,486 ? -24.2°
Sets 04:10:48 0° 61° (ENE) 3,424 ? -23.6°
